Weather History for VTSP - February, 2014

Change the Weather History Date:

Saturday, February 8, 2014

  Actual Average Record
Temperature  
Mean Temperature 81 °F -  
Max Temperature 88 °F 91 °F 96 °F (2002)
Min Temperature 74 °F 75 °F 68 °F (2000)
Cooling Degree Days 16    
Growing Degree Days 31 (Base 50)    
Moisture  
Dew Point 72 °F    
Average Humidity 72    
Maximum Humidity 89    
Minimum Humidity 56    
Precipitation  
Precipitation 0.00 in 0.05 in - ()
Sea Level Pressure  
Sea Level Pressure 29.77 in    
Wind  
Wind Speed 5 mph ()    
Max Wind Speed 14 mph    
Max Gust Speed -    
Visibility 4.4 miles    
Events      
Averages and records for this station are not official NWS values.
T = Trace of Precipitation, MM = Missing Value Source: Averaged Metar Reports

Daily Weather History Graph

Daily Weather History Graph

Search for Another Location

Airport or City:

Trip Planner

Search our weather history database for the weather conditions in past years. The results will help you decide how hot, cold, wet, or windy it might be!

Date:

Astronomy

Feb. 08, 2014 Rise Set
Actual Time 6:46 AM ICT 6:35 PM ICT
Civil Twilight 6:24 AM ICT 6:57 PM ICT
Nautical Twilight 5:59 AM ICT 7:22 PM ICT
Astronomical Twilight 5:34 AM ICT 7:47 PM ICT
Moon 1:21 PM ICT (2/8) 1:17 AM ICT (2/8)
Length of Visible Light 12h 32m
Length of Day
11h 49m
Waxing Gibbous, 64% of the Moon is Illuminated
Feb 8
Waxing Gibbous
Feb 15
Full
Feb 23
Last Quarter
Mar 1
New
Mar 8
First Quarter

Hourly Weather History & Observations

Time (ICT) Temp. Heat Index Dew Point Humidity Pressure Visibility Wind Dir Wind Speed Gust Speed Precip Events Conditions
1:00 AM 78 °F - 72 °F 78% 29.75 in 6 mi Calm Calm - -   Mist
1:00 AM 78.8 °F - 71.6 °F 78% 29.77 in 5.0 mi Variable 2.3 mph - N/A   Scattered Clouds
2:00 AM 77.0 °F - 71.6 °F 83% 29.74 in 5.0 mi Calm Calm - N/A   Scattered Clouds
3:00 AM 75.2 °F - 71.6 °F 89% 29.74 in 5.0 mi Calm Calm - N/A   Scattered Clouds
4:00 AM 76 °F - 72 °F 85% 29.71 in 6 mi Calm Calm - -   Mist
4:00 AM 75.2 °F - 69.8 °F 83% 29.74 in 5.0 mi East 2.3 mph - N/A   Scattered Clouds
5:00 AM 75.2 °F - 69.8 °F 83% 29.74 in 5.0 mi East 3.5 mph - N/A   Scattered Clouds
6:00 AM 75.2 °F - 69.8 °F 83% 29.77 in 5.0 mi East 4.6 mph - N/A   Scattered Clouds
7:00 AM 76 °F - 73 °F 86% 29.75 in 3 mi Calm Calm - -   Mist
7:30 AM 75.2 °F - 71.6 °F 89% 29.77 in 3.1 mi East 4.6 mph - N/A   Mostly Cloudy
8:00 AM 77.0 °F - 73.4 °F 89% 29.80 in 3.1 mi East 4.6 mph - N/A   Mostly Cloudy
8:30 AM 80.6 °F 85.4 °F 73.4 °F 79% 29.80 in 3.1 mi ENE 4.6 mph - N/A   Mostly Cloudy
9:00 AM 82.4 °F 87.2 °F 71.6 °F 70% 29.80 in 3.1 mi East 5.8 mph - N/A   Mostly Cloudy
9:30 AM 84.2 °F 89.6 °F 71.6 °F 66% 29.83 in 3.1 mi East 5.8 mph - N/A   Mostly Cloudy
10:00 AM 84 °F - 74 °F 64% 29.80 in 3 mi ENE 5.8 mph - -   Mist
10:00 AM 84.2 °F 89.6 °F 71.6 °F 66% 29.83 in 3.1 mi Variable 3.5 mph - N/A   Haze
10:30 AM 82.4 °F 87.2 °F 71.6 °F 70% 29.80 in 4.3 mi Variable 2.3 mph - N/A   Mostly Cloudy
11:00 AM 86.0 °F 91.8 °F 71.6 °F 62% 29.80 in 4.3 mi Variable 4.6 mph - N/A   Mostly Cloudy
11:30 AM 86.0 °F 90.4 °F 69.8 °F 58% 29.80 in 4.3 mi Variable 6.9 mph - N/A   Mostly Cloudy
12:00 PM 84.2 °F 88.4 °F 69.8 °F 62% 29.80 in 4.3 mi WNW 5.8 mph - N/A   Mostly Cloudy
12:30 PM 87.8 °F 93.8 °F 71.6 °F 58% 29.80 in 4.3 mi West 9.2 mph - N/A   Mostly Cloudy
1:00 PM 87 °F - 74 °F 56% 29.76 in 4 mi NW 13.8 mph - -   Haze
1:00 PM 87.8 °F 93.8 °F 71.6 °F 58% 29.77 in 4.3 mi West 10.4 mph - N/A   Mostly Cloudy
1:30 PM 87.8 °F 93.8 °F 71.6 °F 58% 29.77 in 4.3 mi West 11.5 mph - N/A   Mostly Cloudy
2:00 PM 86.0 °F 90.4 °F 69.8 °F 58% 29.77 in 4.3 mi West 11.5 mph - N/A   Mostly Cloudy
2:30 PM 86.0 °F 91.8 °F 71.6 °F 62% 29.74 in 4.3 mi West 13.8 mph - N/A   Mostly Cloudy
3:00 PM 86.0 °F 91.8 °F 71.6 °F 62% 29.74 in 5.0 mi West 13.8 mph - N/A   Mostly Cloudy
3:30 PM 86.0 °F 91.8 °F 71.6 °F 62% 29.74 in 5.0 mi West 13.8 mph - N/A   Mostly Cloudy
4:00 PM 88 °F - 75 °F 57% 29.71 in 6 mi NNW 13.8 mph - -   Scattered Clouds
4:00 PM 86.0 °F 91.8 °F 71.6 °F 62% 29.74 in 5.0 mi WNW 13.8 mph - N/A   Mostly Cloudy
4:30 PM 84.2 °F 89.6 °F 71.6 °F 66% 29.74 in 5.0 mi WNW 12.7 mph - N/A   Mostly Cloudy
5:00 PM 84.2 °F 90.9 °F 73.4 °F 70% 29.74 in 5.0 mi West 12.7 mph - N/A   Mostly Cloudy
5:30 PM 82.4 °F 87.2 °F 71.6 °F 70% 29.74 in 5.0 mi West 12.7 mph - N/A   Mostly Cloudy
6:00 PM 82.4 °F 88.2 °F 73.4 °F 74% 29.74 in 5.0 mi WNW 11.5 mph - N/A   Mostly Cloudy
6:30 PM 82.4 °F 87.2 °F 71.6 °F 70% 29.77 in 4.3 mi WNW 10.4 mph - N/A   Mostly Cloudy
7:00 PM 83 °F - 75 °F 70% 29.73 in 4 mi North 8.1 mph - -   Mist
7:00 PM 80.6 °F 85.4 °F 73.4 °F 79% 29.77 in 4.3 mi WNW 10.4 mph - N/A   Mostly Cloudy
7:30 PM 80.6 °F 84.6 °F 71.6 °F 74% 29.77 in 4.3 mi WNW 10.4 mph - N/A   Mostly Cloudy
8:00 PM 80.6 °F 85.4 °F 73.4 °F 79% 29.80 in 4.3 mi WNW 9.2 mph - N/A   Mostly Cloudy
8:30 PM 80.6 °F 84.6 °F 71.6 °F 74% 29.80 in 4.3 mi WNW 11.5 mph - N/A   Mostly Cloudy
9:00 PM 80.6 °F 85.4 °F 73.4 °F 79% 29.80 in 4.3 mi WNW 11.5 mph - N/A   Mostly Cloudy
9:30 PM 80.6 °F 85.4 °F 73.4 °F 79% 29.80 in 4.3 mi WNW 11.5 mph - N/A   Mostly Cloudy
10:00 PM 82 °F - 74 °F 70% 29.78 in 5 mi Calm Calm - -   Mist
10:00 PM 80.6 °F 84.6 °F 71.6 °F 74% 29.80 in 4.3 mi WNW 10.4 mph - N/A   Mostly Cloudy
10:30 PM 80.6 °F 84.6 °F 71.6 °F 74% 29.80 in 4.3 mi WNW 10.4 mph - N/A   Mostly Cloudy
11:00 PM 80.6 °F 84.6 °F 71.6 °F 74% 29.80 in 5.0 mi WNW 9.2 mph - N/A   Mostly Cloudy
11:30 PM 78.8 °F - 71.6 °F 78% 29.80 in 5.0 mi West 6.9 mph - N/A   Mostly Cloudy